Weather History for KBFD - November, 2012

Change the Weather History Date:

Monday, November 5, 2012

  Actual Average Record
Temperature  
Mean Temperature 30 °F 41 °F  
Max Temperature 33 °F 50 °F 66 °F (1975)
Min Temperature 28 °F 32 °F 8 °F (1991)
Degree Days  
Heating Degree Days 34 20  
Month to date heating degree days 95  
Since 1 July heating degree days 1088  
Cooling Degree Days 0 0  
Month to date cooling degree days 0  
Year to date cooling degree days 193  
Moisture  
Dew Point 21 °F    
Average Humidity 67    
Maximum Humidity 75    
Minimum Humidity 59    
Precipitation  
Precipitation 0.00 in 0.12 in 0.83 in (1988)
Month to date precipitation 0.58  
Year to date precipitation 37.88  
Sea Level Pressure  
Sea Level Pressure 30.12 in    
Wind  
Wind Speed 7 mph (NNW)    
Max Wind Speed 10 mph    
Max Gust Speed -    
Visibility 10 miles    
Events      
T = Trace of Precipitation, MM = Missing Value Source: NWS Daily Summary

Daily Weather History Graph

Daily Weather History Graph

Search for Another Location

Airport or City:

Trip Planner

Search our weather history database for the weather conditions in past years. The results will help you decide how hot, cold, wet, or windy it might be!

Date:

Astronomy

Nov. 05, 2012 Rise Set
Actual Time 6:52 AM EST 5:03 PM EST
Civil Twilight 6:23 AM EST 5:32 PM EST
Nautical Twilight 5:49 AM EST 6:05 PM EST
Astronomical Twilight 5:17 AM EST 6:38 PM EST
Moon 10:39 PM EST (11/5) 12:10 PM EST (11/5)
Length of Visible Light 11h 09m
Length of Day
10h 11m
Waning Gibbous, 63% of the Moon is Illuminated
Nov 5
Waning Gibbous
Nov 6
Last Quarter
Nov 13
New
Nov 20
First Quarter
Nov 28
Full

Hourly Weather History & Observations

Time (EST) Temp. Windchill Dew Point Humidity Pressure Visibility Wind Dir Wind Speed Gust Speed Precip Events Conditions
12:53 AM 30.9 °F 25.2 °F 23.0 °F 72% 30.07 in 10.0 mi NW 5.8 mph - N/A   Overcast
1:53 AM 30.9 °F 24.3 °F 23.0 °F 72% 30.06 in 10.0 mi NNW 6.9 mph - N/A   Overcast
2:53 AM 30.9 °F 24.3 °F 23.0 °F 72% 30.07 in 10.0 mi North 6.9 mph - N/A   Overcast
3:03 AM 30.9 °F 25.2 °F 23.0 °F 72% 30.01 in 10.0 mi North 5.8 mph - N/A   Overcast
3:37 AM 30.9 °F 22.2 °F 23.0 °F 72% 30.01 in 10.0 mi NNW 10.4 mph - N/A   Overcast
3:53 AM 30.0 °F 21.7 °F 23.0 °F 75% 30.07 in 10.0 mi NNW 9.2 mph - N/A   Overcast
4:23 AM 30.0 °F 22.4 °F 23.0 °F 75% 30.02 in 10.0 mi North 8.1 mph - N/A   Overcast
4:53 AM 30.0 °F 21.7 °F 23.0 °F 75% 30.08 in 10.0 mi North 9.2 mph - N/A   Overcast
5:53 AM 30.0 °F 23.2 °F 21.9 °F 72% 30.10 in 10.0 mi North 6.9 mph - N/A   Overcast
7:53 AM 30.0 °F 24.1 °F 19.9 °F 66% 30.13 in 10.0 mi NNW 5.8 mph - N/A   Overcast
8:53 AM 30.9 °F 25.2 °F 21.0 °F 67% 30.13 in 10.0 mi NNW 5.8 mph - N/A   Overcast
9:53 AM 30.9 °F 23.5 °F 21.0 °F 67% 30.14 in 10.0 mi NNW 8.1 mph - N/A   Overcast
10:53 AM 32.0 °F 23.6 °F 19.0 °F 59% 30.14 in 10.0 mi North 10.4 mph - N/A   Overcast
11:53 AM 32.0 °F 26.4 °F 19.9 °F 61% 30.14 in 10.0 mi NNE 5.8 mph - N/A   Overcast
12:53 PM 32.0 °F 27.5 °F 21.0 °F 64% 30.12 in 10.0 mi North 4.6 mph - N/A   Overcast
1:53 PM 33.1 °F 26.9 °F 21.0 °F 61% 30.12 in 10.0 mi North 6.9 mph - N/A   Overcast
2:53 PM 32.0 °F 25.6 °F 21.9 °F 66% 30.13 in 10.0 mi NW 6.9 mph - N/A   Overcast
3:53 PM 30.9 °F 23.5 °F 21.0 °F 67% 30.13 in 10.0 mi NNW 8.1 mph - N/A   Overcast
4:53 PM 30.9 °F 24.3 °F 19.0 °F 61% 30.14 in 10.0 mi North 6.9 mph - N/A   Overcast
5:53 PM 30.0 °F 24.1 °F 19.0 °F 64% 30.15 in 10.0 mi North 5.8 mph - N/A   Overcast
6:53 PM 30.0 °F 25.2 °F 19.0 °F 64% 30.17 in 10.0 mi NW 4.6 mph - N/A   Overcast
7:53 PM 30.0 °F 24.1 °F 19.0 °F 64% 30.17 in 10.0 mi NNE 5.8 mph - N/A   Overcast
8:53 PM 30.0 °F 24.1 °F 18.0 °F 61% 30.17 in 10.0 mi North 5.8 mph - N/A   Overcast
9:53 PM 30.0 °F 26.5 °F 18.0 °F 61% 30.18 in 10.0 mi NNW 3.5 mph - N/A   Overcast
10:53 PM 28.9 °F - 17.1 °F 61% 30.18 in 10.0 mi Calm Calm - N/A   Overcast
11:53 PM 28.9 °F - 18.0 °F 64% 30.18 in 10.0 mi Calm Calm - N/A   Overcast